N6GIW Weather Reports


time (UTC)temp
C
wind
direction
speed
KPH
gust
KPH
rain 1hr
cm
rain 24hr
cm
rain mn
cm
humidity
%
barometer
mb
20260509004003 31 207 19.3 27.4 0.00 0.00 0.00 13 1020.1
20260509003504 32 202 14.5 24.1 0.00 0.00 0.00 12 1020.1
20260509003003 32 210 16.1 22.5 0.00 0.00 0.00 12 1020.2
20260509002503 32 210 16.1 25.7 0.00 0.00 0.00 11 1020.0
20260509002003 32 203 19.3 25.7 0.00 0.00 0.00 11 1020.2
20260509001504 32 223 14.5 24.1 0.00 0.00 0.00 11 1020.2
20260509000504 32 210 14.5 24.1 0.00 0.00 0.00 11 1020.4
20260509000003 32 215 14.5 24.1 0.00 0.00 0.00 10 1020.3
20260508235503 32 191 16.1 25.7 0.00 0.00 0.00 10 1020.3
20260508235004 32 214 14.5 22.5 0.00 0.00 0.00 10 1020.4
20260508234504 32 198 16.1 22.5 0.00 0.00 0.00 9 1020.3
20260508234003 33 223 14.5 25.7 0.00 0.00 0.00 10 1020.4
20260508233503 32 209 11.3 22.5 0.00 0.00 0.00 10 1020.4
20260508232503 33 181 20.9 29.0 0.00 0.00 0.00 10 1020.3
20260508232004 33 217 17.7 24.1 0.00 0.00 0.00 9 1020.4
20260508231504 33 195 16.1 25.7 0.00 0.00 0.00 9 1020.5
20260508231003 33 210 14.5 24.1 0.00 0.00 0.00 10 1020.6
20260508230504 33 200 20.9 29.0 0.00 0.00 0.00 9 1020.5
20260508225503 33 188 16.1 27.4 0.00 0.00 0.00 9 1020.6
20260508225003 33 196 16.1 29.0 0.00 0.00 0.00 9 1020.7
20260508224503 33 194 17.7 27.4 0.00 0.00 0.00 9 1020.5
20260508224004 33 228 17.7 25.7 0.00 0.00 0.00 9 1020.6
20260508223504 33 214 16.1 29.0 0.00 0.00 0.00 9 1020.6
20260508223004 33 225 17.7 27.4 0.00 0.00 0.00 9 1020.9
20260508222504 33 199 11.3 22.5 0.00 0.00 0.00 9 1021.0
20260508222004 33 219 14.5 22.5 0.00 0.00 0.00 9 1020.9
20260508221504 33 199 16.1 29.0 0.00 0.00 0.00 9 1021.0
20260508221004 33 174 19.3 32.2 0.00 0.00 0.00 9 1021.1
20260508220503 33 203 17.7 25.7 0.00 0.00 0.00 9 1021.2
20260508220003 33 183 19.3 29.0 0.00 0.00 0.00 9 1021.1
20260508215004 33 149 12.9 24.1 0.00 0.00 0.00 9 1021.2
20260508214503 33 236 9.7 19.3 0.00 0.00 0.00 9 1021.3
20260508214003 33 197 9.7 20.9 0.00 0.00 0.00 9 1021.3
20260508213503 33 166 16.1 24.1 0.00 0.00 0.00 9 1021.4
20260508213003 33 210 12.9 20.9 0.00 0.00 0.00 9 1021.4
20260508212503 33 182 14.5 22.5 0.00 0.00 0.00 9 1021.5
20260508212003 33 148 9.7 19.3 0.00 0.00 0.00 9 1021.5
20260508211503 32 116 8.0 19.3 0.00 0.00 0.00 9 1021.7
20260508211005 32 124 6.4 14.5 0.00 0.00 0.00 10 1021.7
20260508210003 33 206 11.3 19.3 0.00 0.00 0.00 9 1021.9
20260508205504 33 232 8.0 19.3 0.00 0.00 0.00 9 1021.9
20260508205004 33 168 3.2 14.5 0.00 0.00 0.00 10 1021.9
20260508204504 33 164 8.0 19.3 0.00 0.00 0.00 10 1021.9
20260508204004 33 148 11.3 20.9 0.00 0.00 0.00 9 1021.9
20260508203503 33 200 9.7 20.9 0.00 0.00 0.00 9 1021.9
20260508203004 33 219 11.3 22.5 0.00 0.00 0.00 10 1022.1
20260508202504 33 179 11.3 20.9 0.00 0.00 0.00 10 1022.1
20260508202004 33 192 1.6 14.5 0.00 0.00 0.00 10 1022.0
20260508201503 33 287 8.0 19.3 0.00 0.00 0.00 10 1022.0
20260508201004 32 33 3.2 11.3 0.00 0.00 0.00 10 1022.2
20260508200504 32 358 3.2 9.7 0.00 0.00 0.00 11 1022.3
20260508200005 32 103 3.2 16.1 0.00 0.00 0.00 11 1022.3
20260508195503 32 16 9.7 22.5 0.00 0.00 0.00 11 1022.3
20260508195003 32 347 8.0 14.5 0.00 0.00 0.00 10 1022.4
20260508194004 32 67 4.8 9.7 0.00 0.00 0.00 11 1022.5
20260508193503 32 344 8.0 19.3 0.00 0.00 0.00 11 1022.6
20260508192503 32 113 1.6 12.9 0.00 0.00 0.00 11 1022.7
20260508192004 31 15 4.8 16.1 0.00 0.00 0.00 12 1022.7
20260508191504 31 31 9.7 19.3 0.00 0.00 0.00 12 1022.7
20260508191004 31 35 9.7 27.4 0.00 0.00 0.00 11 1022.7
20260508190504 31 22 11.3 22.5 0.00 0.00 0.00 11 1022.9
20260508190003 31 11 11.3 20.9 0.00 0.00 0.00 12 1022.9
20260508185504 31 41 9.7 19.3 0.00 0.00 0.00 12 1023.0
20260508185003 31 27 9.7 16.1 0.00 0.00 0.00 12 1023.1
20260508184503 31 6 12.9 19.3 0.00 0.00 0.00 12 1023.2
20260508183503 31 22 11.3 16.1 0.00 0.00 0.00 12 1023.2
20260508183003 31 14 8.0 19.3 0.00 0.00 0.00 12 1023.2
20260508182504 31 37 6.4 16.1 0.00 0.00 0.00 12 1022.9
20260508182004 31 13 11.3 16.1 0.00 0.00 0.00 12 1022.9
20260508181504 31 10 11.3 19.3 0.00 0.00 0.00 13 1023.0
20260508181003 31 338 4.8 14.5 0.00 0.00 0.00 13 1023.2
20260508180504 31 54 1.6 4.8 0.00 0.00 0.00 13 1023.0
20260508180004 30 33 6.4 19.3 0.00 0.00 0.00 13 1023.0
20260508175004 31 18 9.7 24.1 0.00 0.00 0.00 13 1023.0
20260508174504 30 48 6.4 14.5 0.00 0.00 0.00 13 1022.9
20260508174004 30 24 8.0 16.1 0.00 0.00 0.00 13 1022.9
20260508173503 30 24 4.8 20.9 0.00 0.00 0.00 14 1022.9
20260508173004 30 27 9.7 16.1 0.00 0.00 0.00 14 1022.9
20260508172504 30 0 8.0 16.1 0.00 0.00 0.00 13 1022.9
20260508172004 30 10 4.8 16.1 0.00 0.00 0.00 14 1022.9
20260508171504 30 351 6.4 16.1 0.00 0.00 0.00 14 1022.9
20260508171004 30 342 3.2 16.1 0.00 0.00 0.00 14 1023.0
20260508170504 30 38 8.0 16.1 0.00 0.00 0.00 14 1022.9
20260508170004 29 5 9.7 19.3 0.00 0.00 0.00 15 1023.0
20260508165504 30 21 8.0 14.5 0.00 0.00 0.00 14 1023.0
20260508165004 29 273 1.6 4.8 0.00 0.00 0.00 14 1023.0
20260508164004 29 44 1.6 3.2 0.00 0.00 0.00 12 1022.9
20260508163503 30 44 3.2 4.8 0.00 0.00 0.00 12 1022.9
20260508163004 29 74 1.6 4.8 0.00 0.00 0.00 12 1023.0
20260508162504 29 93 3.2 4.8 0.00 0.00 0.00 13 1023.0
20260508162004 28 84 1.6 9.7 0.00 0.00 0.00 13 1022.9
20260508161504 28 74 1.6 4.8 0.00 0.00 0.00 13 1023.0
20260508161003 28 109 1.6 4.8 0.00 0.00 0.00 13 1023.1
20260508160503 28 88 3.2 4.8 0.00 0.00 0.00 13 1023.1
20260508160005 28 75 1.6 4.8 0.00 0.00 0.00 13 1023.1
20260508155504 28 85 1.6 4.8 0.00 0.00 0.00 13 1023.1
20260508155003 28 76 1.6 3.2 0.00 0.00 0.00 13 1023.1
20260508154004 27 67 1.6 3.2 0.00 0.00 0.00 14 1023.1
20260508153504 27 67 1.6 3.2 0.00 0.00 0.00 13 1023.2
20260508153004 27 68 1.6 4.8 0.00 0.00 0.00 14 1023.0
20260508152504 28 129 0.0 3.2 0.00 0.00 0.00 13 1023.0
20260508151004 27 162 0.0 1.6 0.00 0.00 0.00 14 1023.0
20260508150504 27 209 0.0 1.6 0.00 0.00 0.00 14 1023.0
20260508150004 26 209 0.0 0.0 0.00 0.00 0.00 15 1022.9
20260508145504 26 209 0.0 3.2 0.00 0.00 0.00 15 1023.1
20260508144504 25 209 3.2 4.8 0.00 0.00 0.00 16 1023.1
20260508144004 24 219 1.6 4.8 0.00 0.00 0.00 16 1023.2
20260508143504 23 254 3.2 4.8 0.00 0.00 0.00 16 1023.1
20260508143004 23 249 3.2 4.8 0.00 0.00 0.00 16 1023.0
20260508142004 22 240 0.0 0.0 0.00 0.00 0.00 17 1022.9
20260508141503 22 242 0.0 0.0 0.00 0.00 0.00 17 1022.9
20260508141004 21 237 0.0 4.8 0.00 0.00 0.00 17 1022.9
20260508140504 21 221 3.2 4.8 0.00 0.00 0.00 18 1022.9
20260508140004 21 222 4.8 9.7 0.00 0.00 0.00 18 1022.8
20260508135503 20 236 4.8 11.3 0.00 0.00 0.00 18 1022.6
20260508134503 20 238 4.8 11.3 0.00 0.00 0.00 19 1022.6
20260508134003 20 250 4.8 9.7 0.00 0.00 0.00 19 1022.6
20260508133504 19 225 4.8 8.0 0.00 0.00 0.00 19 1022.5
20260508132504 18 239 0.0 0.0 0.00 0.00 0.00 20 1022.3
20260508132004 18 236 0.0 0.0 0.00 0.00 0.00 20 1022.2
20260508131504 18 227 0.0 0.0 0.00 0.00 0.00 21 1022.2
20260508131003 17 234 0.0 0.0 0.00 0.00 0.00 21 1022.2
20260508130503 17 225 0.0 0.0 0.00 0.00 0.00 22 1022.1
20260508130004 17 225 0.0 0.0 0.00 0.00 0.00 21 1022.0
20260508125504 17 225 0.0 0.0 0.00 0.00 0.00 21 1022.0
20260508125004 17 225 0.0 0.0 0.00 0.00 0.00 21 1021.9
20260508124503 17 225 0.0 0.0 0.00 0.00 0.00 21 1021.8
20260508124004 17 225 0.0 0.0 0.00 0.00 0.00 22 1021.8
20260508123504 17 225 0.0 0.0 0.00 0.00 0.00 22 1021.7
20260508122504 18 225 0.0 0.0 0.00 0.00 0.00 21 1021.6
20260508122003 18 226 0.0 0.0 0.00 0.00 0.00 21 1021.8
20260508121504 18 227 0.0 0.0 0.00 0.00 0.00 21 1021.7
20260508121004 18 230 0.0 0.0 0.00 0.00 0.00 21 1021.7
20260508120005 18 229 0.0 0.0 0.00 0.00 0.00 21 1021.6
20260508115504 18 236 0.0 0.0 0.00 0.00 0.00 21 1021.6
20260508115004 18 229 0.0 0.0 0.00 0.00 0.00 21 1021.6
20260508114503 18 227 0.0 0.0 0.00 0.00 0.00 22 1021.4
20260508114004 17 221 0.0 0.0 0.00 0.00 0.00 22 1021.4
20260508113005 17 202 0.0 0.0 0.00 0.00 0.00 23 1021.5
20260508112004 16 188 0.0 0.0 0.00 0.00 0.00 24 1021.4
20260508111003 16 188 0.0 0.0 0.00 0.00 0.00 25 1021.4
20260508110504 16 180 0.0 0.0 0.00 0.00 0.00 25 1021.5
20260508110004 16 180 0.0 0.0 0.00 0.00 0.00 25 1021.4
20260508105004 16 180 0.0 0.0 0.00 0.00 0.00 25 1021.4
20260508104004 17 180 0.0 0.0 0.00 0.00 0.00 25 1021.5
20260508103503 17 180 0.0 0.0 0.00 0.00 0.00 24 1021.5
20260508102504 17 180 0.0 0.0 0.00 0.00 0.00 24 1021.6
20260508102004 18 180 0.0 0.0 0.00 0.00 0.00 23 1021.5
20260508101504 18 204 0.0 0.0 0.00 0.00 0.00 23 1021.5
20260508101004 19 242 0.0 0.0 0.00 0.00 0.00 22 1021.4
20260508100504 20 273 0.0 0.0 0.00 0.00 0.00 21 1021.5
20260508100004 21 273 0.0 0.0 0.00 0.00 0.00 20 1021.6
20260508095504 22 273 0.0 0.0 0.00 0.00 0.00 19 1021.6
20260508094505 22 273 0.0 0.0 0.00 0.00 0.00 19 1021.6
20260508094009 22 285 0.0 0.0 0.00 0.00 0.00 19 1021.6
20260508093504 22 250 0.0 0.0 0.00 0.00 0.00 19 1021.6
20260508093004 22 253 0.0 0.0 0.00 0.00 0.00 19 1021.6
20260508092503 22 259 0.0 0.0 0.00 0.00 0.00 19 1021.7
20260508092004 22 264 0.0 0.0 0.00 0.00 0.00 20 1021.7
20260508091504 22 274 0.0 0.0 0.00 0.00 0.00 20 1021.7
20260508091004 22 259 0.0 0.0 0.00 0.00 0.00 20 1021.7
20260508090504 22 262 0.0 0.0 0.00 0.00 0.00 21 1021.8
20260508085504 22 257 0.0 0.0 0.00 0.00 0.00 21 1021.9
20260508085005 22 243 0.0 0.0 0.00 0.00 0.00 20 1022.0
20260508084004 23 298 0.0 0.0 0.00 0.00 0.00 20 1022.1
20260508083504 22 323 0.0 0.0 0.00 0.00 0.00 21 1022.1
20260508083003 22 275 0.0 0.0 0.00 0.00 0.00 21 1022.1
20260508082504 23 283 0.0 0.0 0.00 0.00 0.00 21 1022.0
20260508081504 22 306 0.0 0.0 0.00 0.00 0.00 22 1022.1
20260508081003 22 302 0.0 3.2 0.00 0.00 0.00 22 1022.1
20260508080504 23 238 0.0 0.0 0.00 0.00 0.00 22 1022.1
20260508080004 23 237 0.0 0.0 0.00 0.00 0.00 22 1022.2
20260508075505 23 232 0.0 0.0 0.00 0.00 0.00 22 1022.2
20260508075003 23 271 0.0 0.0 0.00 0.00 0.00 21 1022.3
20260508074503 23 295 0.0 0.0 0.00 0.00 0.00 22 1022.2
20260508074004 23 300 0.0 0.0 0.00 0.00 0.00 22 1022.3
20260508073504 22 277 0.0 0.0 0.00 0.00 0.00 23 1022.3
20260508073004 23 321 0.0 0.0 0.00 0.00 0.00 23 1022.3
20260508072503 22 284 0.0 0.0 0.00 0.00 0.00 23 1022.3
20260508072004 23 259 0.0 0.0 0.00 0.00 0.00 23 1022.3
20260508071504 23 175 0.0 0.0 0.00 0.00 0.00 23 1022.2
20260508071004 23 238 0.0 0.0 0.00 0.00 0.00 23 1022.2
20260508070504 24 281 0.0 0.0 0.00 0.00 0.00 23 1022.2
20260508070004 24 282 0.0 0.0 0.00 0.00 0.00 23 1022.1
20260508065504 24 277 0.0 0.0 0.00 0.00 0.00 23 1022.1
20260508065003 24 288 0.0 0.0 0.00 0.00 0.00 23 1022.2
20260508064504 24 287 0.0 0.0 0.00 0.00 0.00 23 1022.3
20260508064004 24 289 0.0 0.0 0.00 0.00 0.00 23 1022.3
20260508063503 24 288 0.0 0.0 0.00 0.00 0.00 24 1022.3
20260508063004 24 292 0.0 0.0 0.00 0.00 0.00 24 1022.4
20260508062504 24 295 0.0 0.0 0.00 0.00 0.00 24 1022.2
20260508061503 24 294 0.0 0.0 0.00 0.00 0.00 24 1022.2
20260508061003 24 284 0.0 0.0 0.00 0.00 0.00 24 1022.2
20260508060504 24 295 0.0 0.0 0.00 0.00 0.00 25 1022.1
20260508060003 24 294 0.0 0.0 0.00 0.00 0.00 25 1022.2
20260508055504 25 289 0.0 0.0 0.00 0.00 0.00 25 1022.3
20260508054505 25 290 0.0 0.0 0.00 0.00 0.00 25 1022.2
20260508053504 25 304 0.0 0.0 0.00 0.00 0.00 25 1022.2
20260508053004 25 296 0.0 0.0 0.00 0.00 0.00 25 1022.3
20260508052004 25 290 0.0 0.0 0.00 0.00 0.00 25 1022.4
20260508051504 25 296 0.0 0.0 0.00 0.00 0.00 25 1022.4
20260508051004 25 300 0.0 0.0 0.00 0.00 0.00 25 1022.4
20260508050504 25 302 0.0 0.0 0.00 0.00 0.00 25 1022.4
20260508045504 25 303 0.0 0.0 0.00 0.00 0.00 25 1022.3
20260508045005 25 306 0.0 0.0 0.00 0.00 0.00 25 1022.3
20260508044504 25 323 0.0 0.0 0.00 0.00 0.00 24 1022.3
20260508044004 25 300 0.0 0.0 0.00 0.00 0.00 24 1022.2
20260508043003 25 290 0.0 0.0 0.00 0.00 0.00 24 1022.1
20260508042503 25 294 0.0 0.0 0.00 0.00 0.00 24 1022.1
20260508042004 25 289 0.0 0.0 0.00 0.00 0.00 23 1022.1
20260508041505 25 292 0.0 0.0 0.00 0.00 0.00 22 1022.0
20260508041004 25 284 0.0 0.0 0.00 0.00 0.00 21 1022.0
20260508040503 25 298 0.0 0.0 0.00 0.00 0.00 21 1021.9
20260508035504 25 282 0.0 0.0 0.00 0.00 0.00 21 1021.9
20260508035004 25 284 0.0 0.0 0.00 0.00 0.00 21 1021.9
20260508034504 26 281 0.0 0.0 0.00 0.00 0.00 22 1021.9
20260508034004 26 288 0.0 0.0 0.00 0.00 0.00 22 1021.9
20260508033504 26 288 0.0 0.0 0.00 0.00 0.00 22 1021.9
20260508033005 25 287 0.0 0.0 0.00 0.00 0.00 23 1021.9
20260508032504 25 262 0.0 0.0 0.00 0.00 0.00 22 1021.6
20260508032004 25 244 0.0 0.0 0.00 0.00 0.00 22 1021.6
20260508031003 25 247 0.0 0.0 0.00 0.00 0.00 21 1021.4
20260508030504 25 247 0.0 0.0 0.00 0.00 0.00 21 1021.3
20260508030004 25 218 0.0 0.0 0.00 0.00 0.00 21 1021.2
20260508025504 25 242 0.0 0.0 0.00 0.00 0.00 21 1021.3
20260508025004 26 240 0.0 0.0 0.00 0.00 0.00 20 1021.2
20260508024505 26 239 0.0 0.0 0.00 0.00 0.00 20 1021.2
20260508024004 26 206 0.0 0.0 0.00 0.00 0.00 19 1021.2
20260508023504 27 255 0.0 0.0 0.00 0.00 0.00 18 1021.0
20260508023004 28 201 0.0 0.0 0.00 0.00 0.00 17 1021.0
20260508022004 29 295 0.0 14.5 0.00 0.00 0.00 13 1021.0
20260508021504 29 315 0.0 4.8 0.00 0.00 0.00 13 1020.9
20260508021004 29 320 0.0 4.8 0.00 0.00 0.00 13 1020.9
20260508020504 29 327 4.8 12.9 0.00 0.00 0.00 12 1020.8
20260508020004 30 338 9.7 16.1 0.00 0.00 0.00 12 1020.8
20260508015504 30 353 8.0 16.1 0.00 0.00 0.00 12 1020.8
20260508015004 30 334 8.0 14.5 0.00 0.00 0.00 12 1020.8
20260508014505 30 322 8.0 16.1 0.00 0.00 0.00 12 1020.8
20260508014004 30 331 9.7 14.5 0.00 0.00 0.00 12 1020.8
20260508013504 30 329 9.7 16.1 0.00 0.00 0.00 12 1020.7
20260508013004 30 316 9.7 19.3 0.00 0.00 0.00 12 1020.8
20260508012504 30 319 9.7 14.5 0.00 0.00 0.00 12 1020.8
20260508012004 30 307 8.0 12.9 0.00 0.00 0.00 13 1020.8
20260508011504 30 318 6.4 14.5 0.00 0.00 0.00 13 1020.9
20260508010005 31 345 16.1 22.5 0.00 0.00 0.00 13 1020.8
20260508005504 31 318 11.3 19.3 0.00 0.00 0.00 13 1020.9
20260508005004 31 3 9.7 19.3 0.00 0.00 0.00 13 1021.0